Tracking 30970 objects as of 3-Jul-2025
HD Live streaming from Space Station
objects crossing your sky now

STARLINK-11193

Track STARLINK-11193 now!
10-day predictions
STARLINK-11193 is classified as:


NORAD ID: 60195
Int'l Code: 2024-124N
Perigee: 366.7 km
Apogee: 367.0 km
Inclination: 53.2 °
Period: 91.7 minutes
Semi major axis: 6737 km
RCS: Unknown
Launch date: July 3, 2024
Source: United States (US)
Launch site: AIR FORCE EASTERN TEST RANGE (AFETR)
Your satellite tracking list
Your tracking list is empty




NASA's NSSDC Master Catalog

Two Line Element Set (TLE):
1 60195U 24124N   25183.78258940  .00000990  00000-0  13015-4 0  9998
2 60195  53.1587 313.1811 0000183  76.7557 283.3481 15.69711536 57284
Source of the keplerian elements: AFSPC